Weather History for Sterling, IL

Change the Weather History Date:

Sunday, October 2, 2011

  Actual Average Record
Temperature  
Mean Temperature 50 °F -  
Max Temperature 69 °F 66 °F 84 °F (1997)
Min Temperature 30 °F 43 °F 19 °F (2003)
Degree Days  
Heating Degree Days 16    
Growing Degree Days 0 (Base 50)    
Moisture  
Dew Point 37 °F    
Average Humidity 70    
Maximum Humidity 93    
Minimum Humidity 33    
Precipitation  
Precipitation 0.00 in - - ()
Sea Level Pressure  
Sea Level Pressure 30.26 in    
Wind  
Wind Speed 1 mph (WNW)    
Max Wind Speed 10 mph    
Max Gust Speed -    
Visibility 8 miles    
Events      
Averages and records for this station are not official NWS values.
T = Trace of Precipitation, MM = Missing Value Source: NWS Daily Summary

Daily Weather History Graph

Daily Weather History Graph

Search for Another Location

Airport:

Trip Planner

Search our weather history database for the weather conditions in past years. The results will help you decide how hot, cold, wet, or windy it might be!

Date:

Astronomy

Oct. 02, 2011 Rise Set
Actual Time 6:56 AM CDT 6:39 PM CDT
Civil Twilight 6:28 AM CDT 7:06 PM CDT
Nautical Twilight 5:56 AM CDT 7:39 PM CDT
Astronomical Twilight 5:23 AM CDT 8:11 PM CDT
Moon 1:07 PM CDT (10/2) 10:32 PM CDT (10/2)
Length of Visible Light 12h 38m
Length of Day
11h 42m
Waxing Crescent, 35% of the Moon is Illuminated
Oct 2
Waxing Crescent
Oct 3
First Quarter
Oct 11
Full
Oct 19
Last Quarter
Oct 26
New

Hourly Weather History & Observations

Time (CDT) Temp. Windchill Dew Point Humidity Pressure Visibility Wind Dir Wind Speed Gust Speed Precip Events Conditions
12:15 AM 39.2 °F - 35.6 °F 87% 30.29 in 10.0 mi Calm Calm - N/A   Clear
12:55 AM 35.6 °F - 32.0 °F 87% 30.29 in 9.0 mi Calm Calm - N/A   Clear
1:15 AM 35.6 °F - 33.8 °F 93% 30.29 in 10.0 mi Calm Calm - N/A   Clear
1:35 AM 35.6 °F - 32.0 °F 87% 30.29 in 1.5 mi Calm Calm - N/A   Clear
1:55 AM 33.8 °F - 30.2 °F 87% 30.29 in 10.0 mi Calm Calm - N/A   Clear
2:15 AM 35.6 °F - 32.0 °F 87% 30.30 in 10.0 mi Calm Calm - N/A   Clear
2:35 AM 33.8 °F - 32.0 °F 93% 30.30 in 0.8 mi Calm Calm - N/A   Unknown
2:55 AM 35.6 °F - 33.8 °F 93% 30.30 in 10.0 mi Calm Calm - N/A   Clear
3:15 AM 33.8 °F - 32.0 °F 93% 30.30 in 1.8 mi Calm Calm - N/A   Clear
3:35 AM 33.8 °F - 30.2 °F 87% 30.30 in 0.5 mi Calm Calm - N/A   Unknown
3:55 AM 33.8 °F - 32.0 °F 93% 30.30 in 2.0 mi Calm Calm - N/A   Clear
4:35 AM 35.6 °F - 32.0 °F 87% 30.30 in 10.0 mi Calm Calm - N/A   Clear
4:55 AM 35.6 °F - 32.0 °F 87% 30.30 in 8.0 mi Calm Calm - N/A   Clear
5:15 AM 33.8 °F - 30.2 °F 87% 30.30 in 3.0 mi Calm Calm - N/A   Clear
5:35 AM 32.0 °F - 28.4 °F 87% 30.31 in 0.2 mi Calm Calm - N/A   Mostly Cloudy
5:55 AM 32.0 °F - 30.2 °F 93% 30.31 in 3.0 mi Calm Calm - N/A   Partly Cloudy
6:15 AM 33.8 °F - 30.2 °F 87% 30.31 in 7.0 mi Calm Calm - N/A   Mostly Cloudy
6:35 AM 30.2 °F - 28.4 °F 93% 30.31 in 0.5 mi Calm Calm - N/A   Overcast
6:55 AM 32.0 °F - 30.2 °F 93% 30.32 in 1.2 mi Calm Calm - N/A   Scattered Clouds
7:15 AM 32.0 °F - 30.2 °F 93% 30.32 in 0.5 mi Calm Calm - N/A   Scattered Clouds
7:35 AM 32.0 °F - 30.2 °F 93% 30.32 in 0.2 mi Calm Calm - N/A   Overcast
7:55 AM 35.6 °F - 33.8 °F 93% 30.32 in 4.0 mi Calm Calm - N/A   Overcast
8:15 AM 39.2 °F - 37.4 °F 93% 30.32 in 1.2 mi Calm Calm - N/A   Mostly Cloudy
8:35 AM 42.8 °F - 39.2 °F 87% 30.32 in 9.0 mi Calm Calm - N/A   Clear
8:55 AM 46.4 °F - 39.2 °F 76% 30.32 in 10.0 mi Calm Calm - N/A   Clear
9:15 AM 50.0 °F - 42.8 °F 76% 30.32 in 10.0 mi West 4.6 mph - N/A   Clear
9:35 AM 51.8 °F - 42.8 °F 71% 30.32 in 10.0 mi West 4.6 mph - N/A   Clear
9:55 AM 53.6 °F - 44.6 °F 72% 30.32 in 10.0 mi West 3.5 mph - N/A   Clear
10:15 AM 55.4 °F - 42.8 °F 63% 30.32 in 10.0 mi West 4.6 mph - N/A   Clear
10:35 AM 57.2 °F - 42.8 °F 59% 30.32 in 10.0 mi West 3.5 mph - N/A   Clear
10:55 AM 59.0 °F - 39.2 °F 48% 30.32 in 10.0 mi NW 3.5 mph - N/A   Clear
11:15 AM 60.8 °F - 39.2 °F 45% 30.31 in 10.0 mi West 4.6 mph - N/A   Clear
11:35 AM 60.8 °F - 39.2 °F 45% 30.31 in 10.0 mi NNW 5.8 mph - N/A   Clear
11:55 AM 62.6 °F - 41.0 °F 45% 30.31 in 10.0 mi North 4.6 mph - N/A   Clear
12:15 PM 62.6 °F - 39.2 °F 42% 30.30 in 10.0 mi Calm Calm - N/A   Clear
12:35 PM 64.4 °F - 39.2 °F 40% 30.29 in 10.0 mi NW 4.6 mph - N/A   Clear
12:55 PM 64.4 °F - 39.2 °F 40% 30.28 in 10.0 mi NW 5.8 mph - N/A   Clear
1:15 PM 66.2 °F - 39.2 °F 37% 30.27 in 10.0 mi Calm Calm - N/A   Clear
1:55 PM 66.2 °F - 39.2 °F 37% 30.25 in 10.0 mi Calm Calm - N/A   Clear
2:15 PM 68.0 °F - 39.2 °F 35% 30.25 in 10.0 mi Calm Calm - N/A   Clear
2:35 PM 68.0 °F - 37.4 °F 33% 30.24 in 10.0 mi WNW 9.2 mph - N/A   Clear
2:55 PM 69.8 °F - 39.2 °F 33% 30.23 in 10.0 mi WNW 8.1 mph - N/A   Clear
3:15 PM 69.8 °F - 39.2 °F 33% 30.22 in 10.0 mi WNW 10.4 mph - N/A   Clear
3:35 PM 68.0 °F - 37.4 °F 33% 30.22 in 10.0 mi West 4.6 mph - N/A   Clear
3:55 PM 68.0 °F - 37.4 °F 33% 30.21 in 10.0 mi NNW 6.9 mph - N/A   Clear
4:35 PM 68.0 °F - 39.2 °F 35% 30.20 in 10.0 mi WNW 6.9 mph - N/A   Clear
5:35 PM 66.2 °F - 37.4 °F 35% 30.20 in 10.0 mi NW 6.9 mph - N/A   Clear
5:55 PM 64.4 °F - 39.2 °F 40% 30.20 in 10.0 mi NW 4.6 mph - N/A   Clear
6:15 PM 62.6 °F - 39.2 °F 42% 30.19 in 10.0 mi WNW 4.6 mph - N/A   Clear
6:55 PM 55.4 °F - 39.2 °F 54% 30.19 in 10.0 mi Calm Calm - N/A   Clear
7:15 PM 50.0 °F - 39.2 °F 66% 30.20 in 10.0 mi Calm Calm - N/A   Clear
7:35 PM 51.8 °F - 39.2 °F 62% 30.20 in 10.0 mi Calm Calm - N/A   Clear
7:55 PM 50.0 °F - 41.0 °F 71% 30.20 in 10.0 mi Calm Calm - N/A   Clear
8:15 PM 46.4 °F - 39.2 °F 76% 30.20 in 10.0 mi Calm Calm - N/A   Clear
8:35 PM 46.4 °F - 39.2 °F 76% 30.20 in 10.0 mi Calm Calm - N/A   Clear
8:55 PM 44.6 °F - 37.4 °F 76% 30.20 in 10.0 mi Calm Calm - N/A   Clear
9:15 PM 46.4 °F - 42.8 °F 87% 30.20 in 10.0 mi Calm Calm - N/A   Clear
9:35 PM 44.6 °F - 39.2 °F 81% 30.20 in 10.0 mi Calm Calm - N/A   Clear
9:55 PM 42.8 °F 41.1 °F 37.4 °F 81% 30.19 in 10.0 mi West 3.5 mph - N/A   Clear
10:15 PM 46.4 °F - 39.2 °F 76% 30.19 in 10.0 mi Calm Calm - N/A   Clear
10:35 PM 46.4 °F - 41.0 °F 81% 30.19 in 10.0 mi Calm Calm - N/A   Clear
10:55 PM 46.4 °F - 41.0 °F 81% 30.20 in 10.0 mi Calm Calm - N/A   Clear
11:15 PM 42.8 °F - 39.2 °F 87% 30.20 in 10.0 mi Calm Calm - N/A   Clear
11:35 PM 44.6 °F - 41.0 °F 87% 30.20 in 10.0 mi Calm Calm - N/A   Clear
11:55 PM 42.8 °F - 37.4 °F 81% 30.20 in 10.0 mi Calm Calm - N/A   Clear